Regional Weather Roundup
Issued by NWS

Home | Current Version | Previous Version | Text Only | Print | Product List | Glossary On
Versions: 1 2 3 4 5 6 7 8 9 10 11 12 13 14 15 16 17 18 19 20 21 22 23 24 25 26 27
000
ASPQ40 PGUM 312212
RWRPQ
WEATHER ROUNDUP FOR THE MARIANAS AND MICRONESIA
NATIONAL WEATHER SERVICE TIYAN GU
800 AM CHST SAT NOV 01 2014

GUZ001>004-312300-
MARIANA ISLANDS-

CITY           SKY/WX    TMP DP  RH WIND       PRES   REMARKS
GUAM AIRPORT   MOSUNNY   82  75  78 CALM      29.85R
ANDERSEN AFB   MOSUNNY   79  75  89 W2        29.85R
ROTA AIRPORT   PTSUNNY   79  75  89 VRB5      29.84R
TINIAN AP      LGT RAIN  79  75  89 CALM      29.82R
SAIPAN AP      PTSUNNY   81  73  78 MISG      29.83R

$$

PMZ161-312300-
REPUBLIC OF PALAU-

CITY           SKY/WX    TMP DP  RH WIND       PRES   REMARKS
KOROR AP       CLOUDY    82  77  83 SW12G17   29.72R HX  91
KOROR WSO      CLOUDY    82  75  78 CALM      29.72R

$$

PMZ171>174-312300-
FEDERATED STATES OF MICRONESIA-

CITY           SKY/WX    TMP DP  RH WIND       PRES   REMARKS
YAP AIRPORT    CLOUDY    81  77  89 S13       29.71R
CHUUK AP       PTSUNNY   84  81  89 VRB3      29.83  HX  98
POHNPEI AP     MOSUNNY   84  77  79 SE3       29.81  HX  94
POHNPEI WSO    NOT AVBL
KOSRAE AP      MOSUNNY   84  77  79 NE9       29.83S HX  94

$$

PMZ181-312300-
REPUBLIC OF THE MARSHALL ISLANDS-

CITY           SKY/WX    TMP DP  RH WIND       PRES   REMARKS
KWAJALEIN AP   SUNNY     82  75  78 NE8       29.84F
MAJURO AP      CLOUDY    88  77  70 S12       29.81R HX 100
MAJURO WSO     PTSUNNY   88  79  74 S6        29.82R HX 102

$$




USA.gov is the U.S. government's official web portal to all federal, state and local government web resources and services.